TimeCST,TemperatureF,Dew PointF,Humidity,Sea Level PressureIn,VisibilityMPH,Wind Direction,Wind SpeedMPH,Gust SpeedMPH,PrecipitationIn,Events,Conditions,WindDirDegrees,DateUTC
12:06 AM,25.0,21.9,88,30.24,10.0,North,16.1,23.0,N/A,Rain,Light Freezing Rain,360,2014-01-29 06:06:00
12:10 AM,25.0,21.9,88,30.25,10.0,North,13.8,24.2,N/A,Rain,Light Freezing Rain,360,2014-01-29 06:10:00
12:19 AM,25.0,21.9,88,30.26,10.0,North,12.7,24.2,N/A,Rain,Light Freezing Rain,360,2014-01-29 06:19:00
12:26 AM,25.0,21.9,88,30.24,9.0,North,16.1,21.9,N/A,Rain,Light Freezing Rain,350,2014-01-29 06:26:00
12:51 AM,24.8,21.2,86,30.27,9.0,North,15.0,25.3,N/A,Snow,Light Snow,350,2014-01-29 06:51:00
12:56 AM,25.0,21.0,85,30.27,9.0,North,16.1,23.0,N/A,Snow,Light Snow,350,2014-01-29 06:56:00
1:56 AM,24.1,19.9,84,30.25,10.0,North,11.5,24.2,N/A,,Overcast,350,2014-01-29 07:56:00
2:56 AM,24.1,19.0,81,30.26,10.0,North,10.4,-,N/A,,Overcast,360,2014-01-29 08:56:00
3:56 AM,24.1,18.0,77,30.27,10.0,North,11.5,-,N/A,,Overcast,350,2014-01-29 09:56:00
4:56 AM,23.0,18.0,81,30.27,10.0,North,13.8,23.0,N/A,,Mostly Cloudy,360,2014-01-29 10:56:00
5:56 AM,23.0,17.1,78,30.34,10.0,North,11.5,-,N/A,,Overcast,10,2014-01-29 11:56:00
6:56 AM,23.0,16.0,74,30.35,10.0,North,10.4,-,N/A,,Clear,360,2014-01-29 12:56:00
7:56 AM,21.9,15.1,75,30.36,10.0,North,11.5,19.6,N/A,,Clear,360,2014-01-29 13:56:00
8:56 AM,21.9,15.1,75,30.38,10.0,North,8.1,-,N/A,,Clear,360,2014-01-29 14:56:00
9:56 AM,23.0,15.1,72,30.41,10.0,North,12.7,18.4,N/A,,Clear,360,2014-01-29 15:56:00
10:56 AM,24.1,16.0,71,30.40,10.0,North,11.5,-,N/A,,Clear,10,2014-01-29 16:56:00
11:56 AM,24.1,15.1,69,30.38,10.0,North,10.4,-,N/A,,Clear,360,2014-01-29 17:56:00
12:56 PM,24.1,16.0,71,30.35,10.0,North,11.5,-,N/A,,Clear,360,2014-01-29 18:56:00
1:56 PM,26.1,17.1,69,30.33,10.0,North,10.4,-,N/A,,Clear,10,2014-01-29 19:56:00
2:56 PM,27.0,19.0,72,30.34,10.0,North,6.9,-,N/A,,Clear,10,2014-01-29 20:56:00
3:56 PM,28.0,19.0,69,30.32,10.0,North,6.9,-,N/A,,Clear,360,2014-01-29 21:56:00
4:56 PM,28.0,19.9,72,30.33,10.0,North,6.9,-,N/A,,Clear,350,2014-01-29 22:56:00
5:56 PM,27.0,19.9,75,30.34,10.0,North,4.6,-,N/A,,Clear,360,2014-01-29 23:56:00
6:56 PM,26.1,19.9,78,30.36,10.0,NNW,5.8,-,N/A,,Clear,330,2014-01-30 00:56:00
7:56 PM,26.1,18.0,71,30.35,10.0,North,6.9,-,N/A,,Clear,350,2014-01-30 01:56:00
8:56 PM,25.0,17.1,72,30.38,10.0,North,6.9,-,N/A,,Clear,350,2014-01-30 02:56:00
9:56 PM,23.0,16.0,74,30.38,10.0,North,4.6,-,N/A,,Clear,350,2014-01-30 03:56:00
10:56 PM,23.0,15.1,72,30.36,10.0,North,4.6,-,N/A,,Clear,360,2014-01-30 04:56:00
11:56 PM,21.9,16.0,78,30.34,10.0,North,4.6,-,N/A,,Clear,360,2014-01-30 05:56:00